[[{"header":{"parameterUnit":"m.s-1","parameterCategory":1,"la1":30.2991,"la2":30.254,"lo1":-89.0895,"lo2":-89.0444,"dy":0.0017,"dx":0.0017,"nx":28,"ny":28,"refTime":"2025-04-29T09:00:00:Z","depth":0,"parameterNumber":2,"parameterNumberName":"U-component_of_WINDS"},"data":[0,0,0,0,0,0,0,0,0,0,0,0,0,0,0,0,0,0,0,0,0,0,0,0,0,0,0,0,0,0,0,0,0,0,0,0,0,0,0,0,0,0,0,0,0,0,0,0,0,0,0,0,0,0,0,0,0,0,-2.326,-2.326,0,-2.3275,-2.3275,-2.3275,-2.3263,-2.3263,-2.3262,-2.3262,-2.3276,-2.3276,-2.3277,0,0,0,0,0,0,0,0,0,0,0,0,0,-2.322,-2.3221,-2.326,-2.326,-2.326,-2.3275,-2.3275,-2.3275,-2.3263,-2.3263,-2.3262,-2.3262,-2.3275,-2.3276,-2.3277,0,0,0,0,0,0,0,0,0,0,0,0,0,-2.3237,-2.3221,-2.3259,-2.3256,-2.3256,-2.3275,-2.3275,-2.3275,-2.3264,-2.3263,-2.3262,-2.3261,-2.3275,-2.3276,-2.3277,-2.33,0,0,-2.3281,-2.3282,0,0,0,0,0,0,0,0,-2.3236,-2.3238,-2.3256,-2.3256,-2.3256,-2.3266,-2.3266,-2.3283,-2.3264,-2.3261,-2.3262,-2.3261,-2.3273,-2.3274,-2.3279,-2.33,-2.3301,-2.3281,-2.3282,-2.3283,-2.3283,0,0,0,0,0,0,0,-2.3235,-2.3237,-2.3265,-2.3257,-2.3256,-2.3254,-2.3255,-2.3269,-2.3271,-2.3261,-2.326,-2.3262,-2.3273,-2.3278,-2.3279,-2.3301,-2.3281,-2.3282,-2.3283,-2.3284,-2.3344,-2.3344,0,0,0,0,0,0,-2.3234,-2.3236,-2.3265,-2.3266,-2.3244,-2.3255,-2.3257,-2.3264,-2.3271,-2.3271,-2.3263,-2.3261,-2.3276,-2.3278,-2.3279,-2.3306,-2.3282,-2.3284,-2.3284,-2.3343,-2.3344,-2.3345,0,0,0,0,0,0,-2.3233,-2.3237,-2.3264,-2.3251,-2.3254,-2.3256,-2.3265,-2.3265,-2.3269,-2.3272,-2.3272,-2.3267,-2.3275,-2.3278,-2.3295,-2.3307,-2.3284,-2.3285,-2.3342,-2.3343,-2.3344,-2.336,0,0,0,0,0,0,-2.3232,-2.3236,-2.3245,-2.3251,-2.3255,-2.328,-2.3265,-2.3265,-2.3272,-2.327,-2.3276,-2.3277,-2.3275,-2.3293,-2.3296,-2.3308,-2.3286,-2.3341,-2.3342,-2.3344,-2.3359,-2.3362,-2.3365,0,0,0,0,0,-2.3231,-2.3248,-2.3245,-2.3249,-2.3266,-2.3281,-2.3283,-2.3281,-2.3273,-2.3281,-2.3283,-2.3276,-2.3306,-2.3295,-2.3299,-2.3311,-2.334,-2.3342,-2.3344,-2.3357,-2.3361,-2.3365,0,0,0,0,0,0,-2.3241,-2.3249,-2.3246,-2.3266,-2.3273,-2.3279,-2.3289,-2.3285,-2.3294,-2.3292,-2.3289,-2.3291,-2.3309,-2.3312,-2.3301,-2.3334,-2.3321,-2.3324,-2.3331,-2.3334,-2.3337,-2.3336,-2.3287,0,0,0,0,0,-2.3246,-2.3258,-2.3264,-2.3281,-2.3285,-2.3287,-2.3293,-2.3291,-2.3298,-2.3301,-2.3304,-2.3311,-2.3322,-2.3328,-2.3338,-2.336,-2.3361,-2.337,-2.3373,-2.3376,-2.3377,-2.339,-2.3394,-2.3351,-2.3351,-2.3351,0,0,-2.3256,-2.3261,-2.3269,-2.3283,-2.3288,-2.3301,-2.3289,-2.3302,-2.3311,-2.3303,-2.3319,-2.3323,-2.333,-2.335,-2.3359,-2.3353,-2.339,-2.3378,-2.338,-2.338,-2.3392,-2.3396,-2.3399,-2.3352,-2.3352,-2.3352,0,0,-2.3279,-2.3285,-2.33,-2.3306,-2.3315,-2.3317,-2.3321,-2.3328,-2.333,-2.3347,-2.3341,-2.3352,-2.3371,-2.3376,-2.3382,-2.3411,-2.3405,-2.3414,-2.3429,-2.3441,-2.3445,-2.3447,-2.3457,-2.3461,-2.3417,-2.3417,-2.3417,0,-2.3289,-2.3308,-2.3308,-2.3322,-2.3329,-2.3324,-2.334,-2.3345,-2.3357,-2.3361,-2.3355,-2.3379,-2.3384,-2.3405,-2.3413,-2.3417,-2.3421,-2.3412,-2.3444,-2.3447,-2.345,-2.3459,-2.3463,-2.3418,-2.3417,-2.3417,-2.3417,0,-2.332,-2.3334,-2.3345,-2.3357,-2.3366,-2.338,-2.3383,-2.3391,-2.339,-2.3392,-2.3411,-2.3417,-2.3428,-2.3434,-2.3432,-2.3455,-2.3451,-2.3445,-2.3432,-2.3455,-2.3464,-2.3467,-2.3419,-2.3419,-2.3418,-2.3418,0,0,-2.3348,-2.3363,-2.3367,-2.3373,-2.3384,-2.3394,-2.3409,-2.3421,-2.3429,-2.3438,-2.345,-2.3467,-2.3462,-2.3468,-2.3467,-2.3478,-2.35,-2.347,-2.347,-2.3475,-2.3527,-2.353,-2.3535,-2.3498,-2.3498,-2.3499,-2.3526,0,-2.3371,-2.3398,-2.34,-2.3424,-2.3437,-2.3434,-2.3447,-2.3455,-2.3459,-2.347,-2.3473,-2.3485,-2.3477,-2.3481,-2.3492,-2.3495,-2.3511,-2.3494,-2.3508,-2.3509,-2.3505,-2.3539,-2.3543,-2.3568,-2.3529,-2.353,-2.353,0,-2.3402,-2.3413,-2.3439,-2.345,-2.3455,-2.3467,-2.3479,-2.349,-2.35,-2.3501,-2.351,-2.3508,-2.3524,-2.3513,-2.3534,-2.3523,-2.3529,-2.3532,-2.3533,-2.3533,-2.352,-2.3539,-2.3576,-2.3579,-2.3536,-2.3535,-2.3535,0,-2.3418,-2.344,-2.3459,-2.3464,-2.3477,-2.3486,-2.3492,-2.3501,-2.3509,-2.352,-2.3525,-2.3537,-2.3544,-2.3554,-2.3555,-2.3547,-2.3577,-2.3566,-2.3578,-2.3578,-2.3583,-2.3582,-2.362,-2.359,-2.359,-2.359,-2.359,0,-2.3443,-2.3459,-2.3467,-2.3478,-2.3496,-2.3498,-2.3516,-2.3521,-2.353,-2.3542,-2.3541,-2.3552,-2.3554,-2.3566,-2.3568,-2.3586,-2.3589,-2.359,-2.359,-2.3589,-2.3589,-2.3592,-2.359,-2.3591,-2.359,-2.359,-2.359,0,-2.3464,-2.347,-2.349,-2.3502,-2.3505,-2.3518,-2.3528,-2.3538,-2.3543,-2.3558,-2.3562,-2.3569,-2.3583,-2.3586,-2.3603,-2.3604,-2.3625,-2.3624,-2.3622,-2.3621,-2.3633,-2.3632,-2.3673,-2.3678,-2.3646,-2.3646,-2.3646,0,-2.3479,-2.3491,-2.3505,-2.3514,-2.352,-2.3534,-2.3543,-2.3547,-2.3556,-2.3569,-2.3579,-2.3593,-2.3604,-2.3627,-2.3633,-2.3646,-2.3644,-2.3658,-2.3646,-2.3645,-2.3644,-2.3642,-2.3643,-2.366,-2.366,-2.366,-2.3661,0,-2.3504,-2.3507,-2.352,-2.3535,-2.3546,-2.3557,-2.3568,-2.3575,-2.3581,-2.3591,-2.3606,-2.3616,-2.3634,-2.3648,-2.3661,-2.3667,-2.3665,-2.3665,-2.3668,-2.3667,-2.3665,-2.3665,-2.3626,-2.3663,-2.3663,-2.3663,-2.3663,-2.3663,-2.3522,-2.3533,-2.3545,-2.356,-2.357,-2.358,-2.3592,-2.3598,-2.3611,-2.3627,-2.3629,-2.3645,-2.3656,-2.3674,-2.3681,-2.3694,-2.3689,-2.3695,-2.3696,-2.3696,-2.3697,-2.3664,-2.3696,-2.3696,-2.3696,-2.3696,-2.3696,0,-2.3547,-2.3555,-2.3569,-2.3586,-2.3598,-2.3597,-2.3609,-2.3619,-2.3634,-2.3645,-2.3657,-2.3675,-2.3689,-2.3697,-2.3712,-2.372,-2.372,-2.3724,-2.3722,-2.3724,-2.37,-2.3696,-2.3724,-2.3724,-2.3724,-2.3724,-2.3724,-2.3724,-2.3561,-2.358,-2.3585,-2.3609,-2.3617,-2.3634,-2.3642,-2.3652,-2.3661,-2.3681,-2.3693,-2.3699,-2.3709,-2.3725,-2.3738,-2.374,-2.3745,-2.3749,-2.375,-2.3728,-2.3725,-2.3722,-2.3718,-2.3751,-2.3751,-2.3773,-2.3773,-2.3773]},{"header":{"parameterUnit":"m.s-1","parameterCategory":1,"la1":30.2991,"la2":30.254,"lo1":-89.0895,"lo2":-89.0444,"dy":0.0017,"dx":0.0017,"nx":28,"ny":28,"refTime":"2025-04-29T09:00:00:Z","depth":0,"parameterNumber":3,"parameterNumberName":"V-component_of_WINDS"},"data":[0,0,0,0,0,0,0,0,0,0,0,0,0,0,0,0,0,0,0,0,0,0,0,0,0,0,0,0,0,0,0,0,0,0,0,0,0,0,0,0,0,0,0,0,0,0,0,0,0,0,0,0,0,0,0,0,0,0,1.902,1.902,0,1.8987,1.8987,1.8987,1.8962,1.8962,1.8962,1.8962,1.8925,1.8924,1.8923,0,0,0,0,0,0,0,0,0,0,0,0,0,1.906,1.906,1.902,1.902,1.9019,1.8987,1.8987,1.8986,1.8962,1.8962,1.8962,1.8962,1.8925,1.8924,1.8923,0,0,0,0,0,0,0,0,0,0,0,0,0,1.9037,1.9059,1.902,1.9003,1.9002,1.8987,1.8987,1.8986,1.8962,1.8962,1.8962,1.8961,1.8925,1.8924,1.8923,1.8922,0,0,1.8919,1.8919,0,0,0,0,0,0,0,0,1.9038,1.9035,1.9006,1.9005,1.9003,1.8979,1.8987,1.8964,1.8962,1.8977,1.8962,1.8961,1.8943,1.894,1.8934,1.892,1.8918,1.8919,1.8918,1.8918,1.8918,0,0,0,0,0,0,0,1.904,1.9036,1.9007,1.9006,1.9004,1.8997,1.8993,1.8983,1.8962,1.8976,1.8974,1.8971,1.8941,1.8936,1.8933,1.8918,1.8919,1.8918,1.8917,1.8917,1.8902,1.8903,0,0,0,0,0,0,1.9044,1.9038,1.9008,1.9006,1.902,1.8997,1.8992,1.8987,1.8962,1.8958,1.8971,1.897,1.8938,1.8935,1.8932,1.893,1.8918,1.8917,1.8916,1.8902,1.8902,1.8903,0,0,0,0,0,0,1.9045,1.9042,1.9009,1.9021,1.9017,1.8996,1.899,1.8986,1.898,1.8958,1.8954,1.8969,1.8937,1.8934,1.8925,1.8928,1.8916,1.8915,1.8902,1.8902,1.8903,1.8925,0,0,0,0,0,0,1.9046,1.9042,1.9042,1.9022,1.9016,1.9003,1.899,1.8986,1.8979,1.8977,1.8955,1.8951,1.8937,1.8927,1.8924,1.8926,1.8914,1.8901,1.8902,1.8902,1.8924,1.8926,1.8928,0,0,0,0,0,1.9048,1.9048,1.9042,1.9038,1.9015,1.9004,1.9,1.8985,1.8979,1.8978,1.8965,1.8952,1.8929,1.8926,1.8922,1.8925,1.8901,1.8902,1.8902,1.8923,1.8926,1.8928,0,0,0,0,0,0,1.9067,1.9045,1.9038,1.9032,1.902,1.9,1.8998,1.8988,1.8977,1.8975,1.8955,1.8951,1.8944,1.8933,1.8931,1.8923,1.8913,1.8913,1.893,1.8933,1.8935,1.8937,1.8913,0,0,0,0,0,1.9071,1.9064,1.9045,1.9041,1.9036,1.9018,1.9012,1.9002,1.8988,1.8983,1.8968,1.8955,1.8945,1.8938,1.8927,1.8923,1.8918,1.8922,1.8925,1.8926,1.8926,1.8924,1.8926,1.8905,1.8905,1.8905,0,0,1.9078,1.9066,1.9062,1.9045,1.9035,1.9028,1.9014,1.9007,1.9001,1.8981,1.8973,1.8962,1.8946,1.894,1.8936,1.893,1.8932,1.8927,1.8929,1.8928,1.8925,1.8927,1.8929,1.8906,1.8906,1.8906,0,0,1.9088,1.9078,1.9074,1.9065,1.905,1.9039,1.9038,1.902,1.9012,1.9004,1.8989,1.8982,1.8965,1.8954,1.8947,1.8956,1.8944,1.8953,1.8963,1.8962,1.8963,1.8965,1.8968,1.897,1.8953,1.8953,1.8953,0,1.9098,1.9088,1.9073,1.9068,1.9061,1.9045,1.9041,1.9032,1.9014,1.901,1.9004,1.8984,1.8971,1.8963,1.8966,1.896,1.8959,1.8954,1.8965,1.8966,1.8967,1.897,1.8971,1.8954,1.8954,1.8954,1.8954,0,1.9102,1.9095,1.9094,1.9079,1.9072,1.9068,1.9052,1.9047,1.9038,1.9027,1.9019,1.9005,1.8992,1.8989,1.8979,1.898,1.8977,1.8968,1.8958,1.897,1.8973,1.8974,1.8956,1.8955,1.8955,1.8955,0,0,1.9121,1.91,1.91,1.9094,1.9077,1.9071,1.9067,1.9055,1.9051,1.904,1.9036,1.9023,1.9015,1.9007,1.8996,1.8994,1.9003,1.8986,1.8985,1.899,1.9005,1.9011,1.9013,1.8996,1.8996,1.8997,1.9006,0,1.9128,1.9119,1.9107,1.9102,1.9096,1.9082,1.9078,1.9067,1.9058,1.9051,1.904,1.9031,1.9022,1.9017,1.9015,1.9003,1.9006,1.9002,1.8991,1.8991,1.8996,1.9014,1.902,1.903,1.9007,1.9007,1.9007,0,1.9135,1.9126,1.9121,1.9107,1.9104,1.9101,1.909,1.9084,1.9072,1.9065,1.9058,1.9046,1.9041,1.9032,1.9024,1.9022,1.9017,1.9011,1.9011,1.9009,1.8999,1.9012,1.9032,1.9034,1.9009,1.9009,1.9008,0,1.915,1.9137,1.9133,1.9128,1.9111,1.9109,1.9102,1.909,1.9085,1.9076,1.9072,1.9062,1.9056,1.9049,1.9035,1.903,1.9029,1.9019,1.9023,1.9023,1.9022,1.9022,1.9042,1.902,1.902,1.902,1.902,0,1.9159,1.9156,1.9139,1.9137,1.9134,1.912,1.9118,1.9109,1.9099,1.9094,1.9081,1.9077,1.906,1.9054,1.9043,1.9039,1.9036,1.903,1.9027,1.9031,1.9032,1.9027,1.9026,1.902,1.902,1.902,1.902,0,1.9174,1.9163,1.9157,1.9143,1.9139,1.9138,1.9126,1.9123,1.9113,1.9108,1.9106,1.9091,1.9083,1.9069,1.9057,1.905,1.9048,1.9043,1.9052,1.905,1.9055,1.9055,1.9072,1.9074,1.9051,1.9051,1.9051,0,1.918,1.9178,1.9165,1.9161,1.9155,1.915,1.9145,1.9132,1.9127,1.9115,1.9114,1.9106,1.9098,1.9087,1.9074,1.9066,1.906,1.9067,1.9059,1.9063,1.9061,1.9061,1.9061,1.9069,1.9069,1.9069,1.9069,0,1.9193,1.9188,1.9182,1.9174,1.9169,1.9162,1.9155,1.9153,1.9138,1.9134,1.9127,1.9121,1.911,1.9102,1.9092,1.9084,1.9075,1.9073,1.9073,1.9076,1.9082,1.9079,1.9057,1.9072,1.9071,1.9071,1.9071,1.9071,1.9204,1.9202,1.9193,1.9187,1.918,1.9174,1.9171,1.9163,1.9157,1.9148,1.914,1.9134,1.9124,1.911,1.9103,1.9098,1.9093,1.9094,1.9094,1.9094,1.9096,1.9084,1.9096,1.9096,1.9096,1.9096,1.9096,0,1.9216,1.921,1.9205,1.9196,1.9191,1.9184,1.9176,1.9173,1.9168,1.916,1.9153,1.9146,1.9139,1.9127,1.9119,1.9118,1.9113,1.9116,1.9116,1.9114,1.91,1.9101,1.912,1.912,1.912,1.912,1.912,1.912,1.9222,1.9219,1.9213,1.9207,1.9201,1.9196,1.9192,1.9186,1.918,1.9173,1.9167,1.916,1.9151,1.9143,1.9136,1.9133,1.9131,1.9135,1.9131,1.9117,1.9115,1.9113,1.9113,1.9135,1.9135,1.9145,1.9145,1.9145]}]]